Regional Weather Roundup
Issued by NWS

Home | Current Version | Previous Version | Text Only | Print | Product List | Glossary On
Versions: 1 2 3 4 5 6 7 8 9 10 11 12 13 14 15 16 17 18 19 20 21 22 23 24 25 26 27 28 29 30 31 32 33 34 35 36 37 38 39 40 41 42 43 44 45 46 47 48 49 50
000
ASUS46 KSTO 211815
RWRCA

NORTHERN AND CENTRAL CA REGIONAL WEATHER ROUNDUP
NATIONAL WEATHER SERVICE SACRAMENTO CA
1100 AM PDT FRI JUL 21 2017

NOTE: FAIR INDICATES FEW OR NO CLOUDS BELOW 12,000 FEET WITH NO
SIGNIFICANT WEATHER AND/OR OBSTRUCTIONS TO VISIBILITY.

CAZ001-003-211900-
NORTHWEST AREA

CITY           SKY/WX    TMP DP  RH WIND       PRES   REMARKS
CRESCENT CITY  PTSUNNY   57  55  93 NW6       30.16S FOG
UKIAH          SUNNY     78  49  35 CALM      30.01F
$$

CAZ006-505>513-211900-
BAY AREA

CITY           SKY/WX    TMP DP  RH WIND       PRES   REMARKS
SANTA ROSA     NOT AVBL
SAN RAFAEL     N/A       66  MM  MM MISG
NAPA           SUNNY     73  52  47 SW8       30.00S
CONCORD        SUNNY     79  52  38 S7        29.99R
OAKLAND CITY   N/A      MM  MM  MM MISG
OAKLAND        MOSUNNY   65  55  70 SW6       30.03S
SAN FRAN CITY  N/A       66  MM  56 MISG
SAN FRAN ARPT  MOSUNNY   65  50  58 NW17      30.02S
LIVERMORE      SUNNY     75  51  43 W6        29.99F
HAYWARD        SUNNY     68  51  54 VRB6      30.03S
REDWOOD CITY   N/A       70  MM  61 MISG
MOFFETT ARPT   SUNNY     69  54  58 VRB5      30.02F
SAN JOSE ARPT  MOSUNNY   74  54  49 VRB6      30.01F
$$
CAZ034-037-514>518-211900-
CENTRAL COAST

CITY           SKY/WX    TMP DP  RH WIND       PRES   REMARKS
WATSONVILLE    SUNNY     64  56  75 S6        30.04F
SALINAS        SUNNY     66  54  65 W12       30.03F
MONTEREY       SUNNY     60  52  74 W10       30.06R
SAN LUIS OBISP SUNNY     75  54  47 NW7       29.98S
SANTA MARIA    SUNNY     69  57  65 VRB7      30.00S
$$
CAZ015-016-211900-
NORTHERN SACRAMENTO VALLEY

CITY           SKY/WX    TMP DP  RH WIND       PRES   REMARKS
REDDING        SUNNY     91  50  24 VRB6      29.94F
RED BLUFF      SUNNY     91  49  23 N7        29.95F
OROVILLE       SUNNY     83  55  38 VRB3      29.97F
$$
CAZ016>018-211900-
SOUTHERN SACRAMENTO VALLEY

CITY           SKY/WX    TMP DP  RH WIND       PRES   REMARKS
AUBURN         SUNNY     82  46  28 W8        30.01S
BEALE AFB      SUNNY     82  53  36 CALM      29.94F
LINCOLN        FAIR      82  45  26 SW5       29.96R
MARYSVILLE     SUNNY     82  32  16 W6        29.96F
MATHER AIRPORT SUNNY     79  52  38 SW5       29.96S
DOWNTOWN SAC   N/A       81  MM  MM MISG
SAC EXEC ARPT  SUNNY     78  57  48 CALM      29.97S
VACAVILLE      SUNNY     82  58  43 VRB5      29.98R
TRAVIS AFB     SUNNY     78  53  42 SW10      29.96R
$$
CAZ019>021-211900-
SAN JOAQUIN VALLEY

CITY           SKY/WX    TMP DP  RH WIND       PRES   REMARKS
STOCKTON       SUNNY     81  54  39 NW7       29.96S
MODESTO        SUNNY     82  50  32 NW7       29.95S
MERCED         SUNNY     82  49  31 NW12      29.95S
LEMOORE        MOSUNNY   87  52  29 N8        29.96F
FRESNO         SUNNY     84  52  33 W7        29.96S
HANFORD        SUNNY     85  51  31 NW5       29.97S
PORTERVILLE      N/A     82  54  37 W9        29.97F
BAKERSFIELD    SUNNY     88  51  28 NW8       29.96S
$$
CAZ011-012-071-211900-
NORTHERN MOUNTAINS

CITY           SKY/WX    TMP DP  RH WIND       PRES   REMARKS
YREKA          SUNNY     75  49  39 CALM      30.13F
MOUNT SHASTA   SUNNY     78  50  37 VRB3      30.14S
ALTURAS        SUNNY     77  37  23 CALM      30.17S
$$
CAZ011-012-071-211900-
SIERRA NEVADA MTNS

CITY           SKY/WX    TMP DP  RH WIND       PRES   REMARKS
TAHOE VLY ARPT SUNNY     70  38  31 NE6       30.26S
MAMMOTH LAKES  FAIR      76  26  15 E7        30.30F
$$




USA.gov is the U.S. government's official web portal to all federal, state and local government web resources and services.